This is the latest recevied weather packets stored in our database for station/object KB0BS-13. If no packets are shown the sender has not sent any weather packets the latest 10 day(s).
| Time | Temp. | Humidity | Pressure | Rain* | Wind** | Luminosity | Snow |
|---|---|---|---|---|---|---|---|
| 1778105023 | 5.56° C | 60% | 1013.2 hPa | 0 mm | - | 136 W/m² | - |
| 1778104720 | 5.56° C | 60% | 1013.2 hPa | 0 mm | - | 128 W/m² | - |
| 1778104416 | 5° C | 61% | 1013.1 hPa | 0 mm | - | 153 W/m² | - |
| 1778104112 | 5° C | 63% | 1013.2 hPa | 0 mm | - | 160 W/m² | - |
| 1778103809 | 5° C | 61% | 1013.1 hPa | 0 mm | - | 151 W/m² | - |
| 1778103507 | 5° C | 61% | 1013.2 hPa | 0 mm | - | 112 W/m² | - |
| 1778103204 | 5° C | 61% | 1013.2 hPa | 0 mm | - | 141 W/m² | - |
| 1778102901 | 5° C | 60% | 1013.4 hPa | 0 mm | - | 149 W/m² | - |
| 1778102597 | 5° C | 60% | 1013.2 hPa | 0 mm | - | 127 W/m² | - |
| 1778102292 | 5° C | 59% | 1013.2 hPa | 0 mm | - | 168 W/m² | - |
| 1778101989 | 5° C | 61% | 1013.3 hPa | 0 mm | - | 183 W/m² | - |
| 1778101687 | 5° C | 62% | 1013.1 hPa | 0 mm | - | 197 W/m² | - |
| 1778101383 | 4.44° C | 61% | 1013.1 hPa | 0 mm | - | 205 W/m² | - |
| 1778101080 | 5° C | 61% | 1013.2 hPa | 0 mm | - | 234 W/m² | - |
| 1778100776 | 4.44° C | 60% | 1013.3 hPa | 0 mm | - | 170 W/m² | - |
| 1778100472 | 4.44° C | 62% | 1013.3 hPa | 0 mm | - | 161 W/m² | - |
| 1778100170 | 4.44° C | 61% | 1013.2 hPa | 0 mm | - | 167 W/m² | - |
| 1778099868 | 4.44° C | 63% | 1013.2 hPa | 0 mm | - | 163 W/m² | - |
| 1778099565 | 4.44° C | 61% | 1013.1 hPa | 0 mm | - | 164 W/m² | - |
| 1778099262 | 4.44° C | 61% | 1013.3 hPa | 0 mm | - | 159 W/m² | - |
| 1778098958 | 4.44° C | 61% | 1013.3 hPa | 0 mm | - | 156 W/m² | - |
| 1778098655 | 4.44° C | 63% | 1013.3 hPa | 0 mm | - | 152 W/m² | - |
| 1778098352 | 5° C | 61% | 1013.2 hPa | 0 mm | - | 148 W/m² | - |
| 1778098049 | 4.44° C | 63% | 1013.1 hPa | 0 mm | - | 156 W/m² | - |
| 1778097746 | 4.44° C | 61% | 1013.2 hPa | 0 mm | - | 158 W/m² | - |
* Rain latest hour (hover to see other rain measurements)
** Current wind speed in m/s (hover to see current wind gust speed)